,,,PA_Meas_PMT16A,,PR_Meas_QMR101_102,,RH_Meas_QMH101,,SR_Meas_QMS101,,TA_Meas_QMH101,,GenWind,,GenWind,
date,time,status,PA,status,PR,status,RH,status,SR,status,TA,status,DirAvg,status,SpdAvg,
2012-01-07, 00:00:04,VALID,1005.81,VALID,0,VALID,91.0202,VALID,0,VALID,25.3176,VALID,102,VALID,0.283594,
2012-01-07, 00:01:04,VALID,1005.83,VALID,0,VALID,91.0736,VALID,0,VALID,25.3176,VALID,102,VALID,0.421484,
2012-01-07, 00:02:04,VALID,1005.83,VALID,0,VALID,91.0507,VALID,0,VALID,25.3176,VALID,102,VALID,0.254687,
2012-01-07, 00:03:04,VALID,1005.83,VALID,0,VALID,91.0125,VALID,0,VALID,25.3176,VALID,102,VALID,0.046875,
2012-01-07, 00:04:04,VALID,1005.81,VALID,0,VALID,91.0431,VALID,0,VALID,25.3176,VALID,102,VALID,0,
2012-01-07, 00:05:04,VALID,1005.8,VALID,0,VALID,91.0354,VALID,0,VALID,25.339,VALID,102,VALID,0,
2012-01-07, 00:06:04,VALID,1005.82,VALID,0,VALID,91.0202,VALID,0,VALID,25.2806,VALID,102,VALID,0.188281,
2012-01-07, 00:07:04,VALID,1005.79,VALID,0,VALID,91.0812,VALID,0,VALID,25.3,VALID,101,VALID,0.117188,
2012-01-07, 00:08:04,VALID,1005.78,VALID,0,VALID,91.0965,VALID,0,VALID,25.2806,VALID,95,VALID,0.348437,
2012-01-07, 00:09:04,VALID,1005.78,VALID,0,VALID,91.1728,VALID,0,VALID,25.2806,VALID,93,VALID,0.3,
2012-01-07, 00:10:04,VALID,1005.76,VALID,0,VALID,91.2033,VALID,0,VALID,25.2611,VALID,71,VALID,0.576172,
2012-01-07, 00:11:04,VALID,1005.7,VALID,0,VALID,91.3101,VALID,0,VALID,25.2221,VALID,55,VALID,0.480078,
2012-01-07, 00:12:04,VALID,1005.67,VALID,0,VALID,91.4779,VALID,0,VALID,25.1618,VALID,55,VALID,0.408984,
2012-01-07, 00:13:04,VALID,1005.62,VALID,0,VALID,91.5618,VALID,0,VALID,25.1618,VALID,55,VALID,0.396875,
2012-01-07, 00:14:04,VALID,1005.61,VALID,0,VALID,91.6839,VALID,0,VALID,25.1637,VALID,24,VALID,0.466406,
2012-01-07, 00:15:04,VALID,1005.6,VALID,0,VALID,91.7449,VALID,0,VALID,25.1618,VALID,24,VALID,0.192969,
2012-01-07, 00:16:04,VALID,1005.61,VALID,0,VALID,91.7831,VALID,0,VALID,25.1423,VALID,24,VALID,0,
2012-01-07, 00:17:04,VALID,1005.58,VALID,0,VALID,91.8975,VALID,0,VALID,25.1637,VALID,24,VALID,0,
2012-01-07, 00:18:04,VALID,1005.54,VALID,0,VALID,91.9356,VALID,0,VALID,25.1637,VALID,24,VALID,0,
2012-01-07, 00:19:04,VALID,1005.53,VALID,0,VALID,92.0424,VALID,0,VALID,25.1618,VALID,24,VALID,0,
2012-01-07, 00:20:04,VALID,1005.49,VALID,0,VALID,92.0882,VALID,0,VALID,25.1618,VALID,25,VALID,0.0746094,
2012-01-07, 00:21:04,VALID,1005.47,VALID,0,VALID,92.0272,VALID,0,VALID,25.1813,VALID,25,VALID,0,
2012-01-07, 00:22:04,VALID,1005.42,VALID,0,VALID,92.0501,VALID,0,VALID,25.1813,VALID,25,VALID,0.219531,
2012-01-07, 00:23:04,VALID,1005.36,VALID,0,VALID,91.989,VALID,0,VALID,25.1832,VALID,25,VALID,0,
2012-01-07, 00:24:04,VALID,1005.37,VALID,0,VALID,92.073,VALID,0,VALID,25.1637,VALID,25,VALID,0.169922,
2012-01-07, 00:25:04,VALID,1005.31,VALID,0,VALID,92.1798,VALID,0,VALID,25.1442,VALID,26,VALID,0.168359,
2012-01-07, 00:26:04,VALID,1005.3,VALID,0,VALID,92.2179,VALID,0,VALID,25.1229,VALID,26,VALID,0,
2012-01-07, 00:27:04,VALID,1005.3,VALID,0,VALID,92.2561,VALID,0,VALID,25.1229,VALID,26,VALID,0,
2012-01-07, 00:28:04,VALID,1005.28,VALID,0,VALID,92.3552,VALID,0,VALID,25.1423,VALID,26,VALID,0.110547,
2012-01-07, 00:29:04,VALID,1005.27,VALID,0,VALID,92.3934,VALID,0,VALID,25.1423,VALID,26,VALID,0,
2012-01-07, 00:30:04,VALID,1005.23,VALID,0,VALID,92.4773,VALID,0,VALID,25.1832,VALID,26,VALID,0,
2012-01-07, 00:31:04,VALID,1005.26,VALID,0,VALID,92.4239,VALID,0,VALID,25.1618,VALID,26,VALID,0,
2012-01-07, 00:32:04,VALID,1005.24,VALID,0,VALID,92.4315,VALID,0,VALID,25.1832,VALID,26,VALID,0,
2012-01-07, 00:33:04,VALID,1005.23,VALID,0,VALID,92.3781,VALID,0,VALID,25.1618,VALID,26,VALID,0,
2012-01-07, 00:34:04,VALID,1005.19,VALID,0,VALID,92.4315,VALID,0,VALID,25.1618,VALID,26,VALID,0,
2012-01-07, 00:35:04,VALID,1005.19,VALID,0,VALID,92.4849,VALID,0,VALID,25.1423,VALID,26,VALID,0,
2012-01-07, 00:36:04,VALID,1005.18,VALID,0,VALID,92.4773,VALID,0,VALID,25.1637,VALID,26,VALID,0.294531,
2012-01-07, 00:37:04,VALID,1005.16,VALID,0,VALID,92.4773,VALID,0,VALID,25.1618,VALID,26,VALID,0.169531,
2012-01-07, 00:38:04,VALID,1005.18,VALID,0,VALID,92.462,VALID,0,VALID,25.1618,VALID,26,VALID,0,
2012-01-07, 00:39:04,VALID,1005.2,VALID,0,VALID,92.5841,VALID,0,VALID,25.1618,VALID,26,VALID,0.0351563,
2012-01-07, 00:40:04,VALID,1005.23,VALID,0,VALID,92.6756,VALID,0,VALID,25.2007,VALID,26,VALID,0.293359,
2012-01-07, 00:41:04,VALID,1005.23,VALID,0,VALID,92.6146,VALID,0,VALID,25.2007,VALID,26,VALID,0.279297,
2012-01-07, 00:42:04,VALID,1005.23,VALID,0,VALID,92.6451,VALID,0,VALID,25.2416,VALID,26,VALID,0.136328,
2012-01-07, 00:43:04,VALID,1005.23,VALID,0,VALID,92.6299,VALID,0,VALID,25.2202,VALID,26,VALID,0,
2012-01-07, 00:44:04,VALID,1005.22,VALID,0,VALID,92.5841,VALID,0,VALID,25.2416,VALID,26,VALID,0,
2012-01-07, 00:45:04,VALID,1005.22,VALID,0,VALID,92.607,VALID,0,VALID,25.1988,VALID,26,VALID,0,
2012-01-07, 00:46:04,VALID,1005.21,VALID,0,VALID,92.6375,VALID,0,VALID,25.2202,VALID,26,VALID,0,
2012-01-07, 00:47:04,VALID,1005.19,VALID,0,VALID,92.546,VALID,0,VALID,25.2416,VALID,26,VALID,0,
2012-01-07, 00:48:04,VALID,1005.15,VALID,0,VALID,92.4239,VALID,0,VALID,25.2202,VALID,26,VALID,0.411719,
2012-01-07, 00:49:04,VALID,1005.14,VALID,0,VALID,92.4544,VALID,0,VALID,25.2027,VALID,26,VALID,0.490234,
2012-01-07, 00:50:04,VALID,1005.06,VALID,0,VALID,92.546,VALID,0,VALID,25.1813,VALID,26,VALID,0.428906,
2012-01-07, 00:51:04,VALID,1005.02,VALID,0,VALID,92.5612,VALID,0,VALID,25.1618,VALID,26,VALID,0.676953,
2012-01-07, 00:52:04,VALID,1005.02,VALID,0,VALID,92.6222,VALID,0,VALID,25.1404,VALID,26,VALID,0.373437,
2012-01-07, 00:53:04,VALID,1004.95,VALID,0,VALID,92.6299,VALID,0,VALID,25.1832,VALID,26,VALID,0.466406,
2012-01-07, 00:54:04,VALID,1004.95,VALID,0,VALID,92.6146,VALID,0,VALID,25.1423,VALID,21,VALID,0.516016,
2012-01-07, 00:55:04,VALID,1004.91,VALID,0,VALID,92.6756,VALID,0,VALID,25.1637,VALID,21,VALID,0.430469,
2012-01-07, 00:56:04,VALID,1004.9,VALID,0,VALID,92.7519,VALID,0,VALID,25.1015,VALID,21,VALID,0.584375,
2012-01-07, 00:57:04,VALID,1004.93,VALID,0,VALID,92.8587,VALID,0,VALID,25.1015,VALID,20,VALID,0.392969,
2012-01-07, 00:58:04,VALID,1004.92,VALID,0,VALID,92.935,VALID,0,VALID,25.1229,VALID,20,VALID,0.251953,
2012-01-07, 00:59:04,VALID,1004.94,VALID,0,VALID,92.9655,VALID,0,VALID,25.1423,VALID,20,VALID,0.371484,
2012-01-07, 01:00:04,VALID,1004.94,VALID,0,VALID,92.9961,VALID,0,VALID,25.1637,VALID,20,VALID,0.243359,
2012-01-07, 01:01:04,VALID,1004.99,VALID,0,VALID,93.0571,VALID,0,VALID,25.1423,VALID,20,VALID,0.110937,
2012-01-07, 01:02:04,VALID,1004.96,VALID,0,VALID,93.0495,VALID,0,VALID,25.1618,VALID,20,VALID,0,
2012-01-07, 01:03:04,VALID,1004.95,VALID,0,VALID,93.0189,VALID,0,VALID,25.1637,VALID,20,VALID,0,
2012-01-07, 01:04:04,VALID,1004.96,VALID,0,VALID,93.0266,VALID,0,VALID,25.1423,VALID,20,VALID,0.362109,
2012-01-07, 01:05:04,VALID,1004.92,VALID,0,VALID,93.0952,VALID,0,VALID,25.1618,VALID,20,VALID,0.598047,
2012-01-07, 01:06:04,VALID,1004.85,VALID,0,VALID,93.1105,VALID,0,VALID,25.1618,VALID,20,VALID,0.640234,
2012-01-07, 01:07:04,VALID,1004.87,VALID,0,VALID,93.1257,VALID,0,VALID,25.1618,VALID,12,VALID,0.771875,
2012-01-07, 01:08:04,VALID,1004.82,VALID,0,VALID,93.1029,VALID,0,VALID,25.1637,VALID,8,VALID,0.60625,
2012-01-07, 01:09:04,VALID,1004.8,VALID,0,VALID,93.1334,VALID,0,VALID,25.1637,VALID,5,VALID,0.68125,
2012-01-07, 01:10:04,VALID,1004.77,VALID,0,VALID,93.202,VALID,0,VALID,25.1832,VALID,4,VALID,0.561719,
2012-01-07, 01:11:04,VALID,1004.78,VALID,0,VALID,93.2249,VALID,0,VALID,25.1618,VALID,4,VALID,0.386328,
2012-01-07, 01:12:04,VALID,1004.78,VALID,0,VALID,93.1944,VALID,0,VALID,25.1618,VALID,4,VALID,0.189844,
2012-01-07, 01:13:04,VALID,1004.77,VALID,0,VALID,93.1639,VALID,0,VALID,25.2007,VALID,4,VALID,0,
2012-01-07, 01:14:04,VALID,1004.77,VALID,0,VALID,93.1334,VALID,0,VALID,25.2202,VALID,4,VALID,0,
2012-01-07, 01:15:04,VALID,1004.74,VALID,0,VALID,93.1029,VALID,0,VALID,25.2397,VALID,4,VALID,0,
2012-01-07, 01:16:04,VALID,1004.71,VALID,0,VALID,93.0571,VALID,0,VALID,25.2397,VALID,4,VALID,0,
2012-01-07, 01:17:04,VALID,1004.73,VALID,0,VALID,93.0266,VALID,0,VALID,25.2592,VALID,4,VALID,0,
2012-01-07, 01:18:04,VALID,1004.72,VALID,0,VALID,93.0495,VALID,0.0815089,VALID,25.2592,VALID,4,VALID,0,
2012-01-07, 01:19:04,VALID,1004.74,VALID,0,VALID,93.1715,VALID,0,VALID,25.2786,VALID,4,VALID,0,
2012-01-07, 01:20:04,VALID,1004.75,VALID,0,VALID,93.1486,VALID,0,VALID,25.2981,VALID,4,VALID,0.0046875,
2012-01-07, 01:21:04,VALID,1004.75,VALID,0,VALID,93.1105,VALID,0,VALID,25.337,VALID,4,VALID,0.402344,
2012-01-07, 01:22:04,VALID,1004.76,VALID,0,VALID,92.9732,VALID,0,VALID,25.3584,VALID,4,VALID,0.348047,
2012-01-07, 01:23:04,VALID,1004.73,VALID,0,VALID,92.9274,VALID,0,VALID,25.3565,VALID,3,VALID,0.655078,
2012-01-07, 01:24:04,VALID,1004.76,VALID,0,VALID,92.7443,VALID,0,VALID,25.337,VALID,2,VALID,0.692187,
2012-01-07, 01:25:04,VALID,1004.77,VALID,0,VALID,92.7443,VALID,0,VALID,25.3176,VALID,358,VALID,0.555469,
2012-01-07, 01:26:04,VALID,1004.77,VALID,0,VALID,92.7367,VALID,0,VALID,25.3584,VALID,358,VALID,0.591797,
2012-01-07, 01:27:04,VALID,1004.78,VALID,0,VALID,92.7824,VALID,0,VALID,25.3584,VALID,358,VALID,0.466406,
2012-01-07, 01:28:04,VALID,1004.79,VALID,0,VALID,92.7062,VALID,0,VALID,25.3176,VALID,358,VALID,0.2,
2012-01-07, 01:29:04,VALID,1004.86,VALID,0,VALID,92.7214,VALID,0,VALID,25.3176,VALID,358,VALID,0.140234,
2012-01-07, 01:30:04,VALID,1004.86,VALID,0,VALID,92.729,VALID,0,VALID,25.339,VALID,358,VALID,0,
2012-01-07, 01:31:04,VALID,1004.92,VALID,0,VALID,92.729,VALID,0,VALID,25.339,VALID,358,VALID,0,
2012-01-07, 01:32:04,VALID,1004.95,VALID,0,VALID,92.7824,VALID,0,VALID,25.3584,VALID,358,VALID,0,
2012-01-07, 01:33:04,VALID,1004.97,VALID,0,VALID,92.7977,VALID,0,VALID,25.3584,VALID,358,VALID,0,
2012-01-07, 01:34:04,VALID,1004.98,VALID,0,VALID,92.7214,VALID,0,VALID,25.337,VALID,358,VALID,0,
2012-01-07, 01:35:04,VALID,1004.99,VALID,0,VALID,92.7062,VALID,0,VALID,25.3565,VALID,358,VALID,0,
2012-01-07, 01:36:04,VALID,1005,VALID,0,VALID,92.7214,VALID,0,VALID,25.3565,VALID,358,VALID,0,
2012-01-07, 01:37:04,VALID,1005.02,VALID,0,VALID,92.7672,VALID,0,VALID,25.3565,VALID,358,VALID,0.300781,
2012-01-07, 01:38:04,VALID,1005.01,VALID,0,VALID,92.7367,VALID,0,VALID,25.3955,VALID,358,VALID,0.449609,
2012-01-07, 01:39:04,VALID,1004.97,VALID,0,VALID,92.729,VALID,0,VALID,25.3955,VALID,358,VALID,0.452734,
2012-01-07, 01:40:04,VALID,1004.93,VALID,0,VALID,92.668,VALID,0,VALID,25.4149,VALID,358,VALID,0.240234,
2012-01-07, 01:41:04,VALID,1004.9,VALID,0,VALID,92.6146,VALID,0,VALID,25.3955,VALID,358,VALID,0.124609,
2012-01-07, 01:42:04,VALID,1004.9,VALID,0,VALID,92.5993,VALID,0,VALID,25.3955,VALID,358,VALID,0.195313,
2012-01-07, 01:43:04,VALID,1004.91,VALID,0,VALID,92.6146,VALID,0,VALID,25.3955,VALID,358,VALID,0,
2012-01-07, 01:44:04,VALID,1004.91,VALID,0,VALID,92.6756,VALID,0,VALID,25.4149,VALID,358,VALID,0,
2012-01-07, 01:45:04,VALID,1004.91,VALID,0,VALID,92.7519,VALID,0,VALID,25.4363,VALID,358,VALID,0.271094,
2012-01-07, 01:46:04,VALID,1004.86,VALID,0,VALID,92.7596,VALID,0,VALID,25.4753,VALID,358,VALID,0.216406,
2012-01-07, 01:47:04,VALID,1004.85,VALID,0,VALID,92.7519,VALID,0,VALID,25.5142,VALID,358,VALID,0.2375,
2012-01-07, 01:48:04,VALID,1004.82,VALID,0,VALID,92.6833,VALID,0,VALID,25.4928,VALID,358,VALID,0.455859,
2012-01-07, 01:49:04,VALID,1004.88,VALID,0,VALID,92.546,VALID,0,VALID,25.4928,VALID,357,VALID,0.438281,
2012-01-07, 01:50:04,VALID,1004.88,VALID,0,VALID,92.4697,VALID,0,VALID,25.4734,VALID,357,VALID,0.217969,
2012-01-07, 01:51:04,VALID,1004.95,VALID,0,VALID,92.4163,VALID,0,VALID,25.4928,VALID,357,VALID,0.212109,
2012-01-07, 01:52:04,VALID,1005,VALID,0,VALID,92.4468,VALID,0,VALID,25.5142,VALID,357,VALID,0.216406,
2012-01-07, 01:53:04,VALID,1005.08,VALID,0,VALID,92.34,VALID,0,VALID,25.5532,VALID,222,VALID,0.676172,
2012-01-07, 01:54:04,VALID,1005.28,VALID,0,VALID,91.6381,VALID,0,VALID,25.5707,VALID,223,VALID,2.31719,
2012-01-07, 01:55:04,VALID,1005.26,VALID,0,VALID,86.0995,VALID,0,VALID,25.376,VALID,223,VALID,4.12383,
2012-01-07, 01:56:04,VALID,1005.25,VALID,0,VALID,87.2668,VALID,0,VALID,25.1053,VALID,232,VALID,2.59414,
2012-01-07, 01:57:04,VALID,1005.24,VALID,0,VALID,88.4798,VALID,0,VALID,24.9282,VALID,223,VALID,2.15781,
2012-01-07, 01:58:04,VALID,1005.19,VALID,0,VALID,88.6705,VALID,0,VALID,24.7529,VALID,294,VALID,1.56797,
2012-01-07, 01:59:04,VALID,1005.2,VALID,0,VALID,87.5643,VALID,0,VALID,24.5388,VALID,201,VALID,4.91992,
2012-01-07, 02:00:04,VALID,1005.04,VALID,0,VALID,87.5872,VALID,0,VALID,24.307,VALID,212,VALID,3.68516,
2012-01-07, 02:01:04,VALID,1005.11,VALID,0,VALID,87.2439,VALID,0,VALID,24.13,VALID,217,VALID,5.63594,
2012-01-07, 02:02:04,VALID,1004.96,VALID,0,VALID,88.3577,VALID,0,VALID,24.0734,VALID,208,VALID,3.61953,
2012-01-07, 02:03:04,VALID,1005.09,VALID,0,VALID,88.9604,VALID,0,VALID,23.9937,VALID,205,VALID,3.31953,
2012-01-07, 02:04:04,VALID,1005.1,VALID,0,VALID,90.0208,VALID,0,VALID,23.9742,VALID,228,VALID,4.79258,
2012-01-07, 02:05:04,VALID,1005.11,VALID,0,VALID,90.8523,VALID,0,VALID,23.9937,VALID,264,VALID,2.01953,
2012-01-07, 02:06:04,VALID,1004.98,VALID,0,VALID,91.0659,VALID,0.0815089,VALID,23.9724,VALID,207,VALID,2.10234,
2012-01-07, 02:07:04,VALID,1005.07,VALID,0,VALID,90.921,VALID,0.0815089,VALID,23.9548,VALID,217,VALID,3.11289,
2012-01-07, 02:08:04,VALID,1005.03,VALID,0,VALID,91.2948,VALID,0,VALID,23.8964,VALID,311,VALID,1.34492,
2012-01-07, 02:09:04,VALID,1005.02,VALID,0,VALID,91.1422,VALID,0,VALID,23.8575,VALID,232,VALID,3.32891,
2012-01-07, 02:10:04,VALID,1005.04,VALID,0,VALID,91.6839,VALID,0,VALID,23.8575,VALID,194,VALID,1.34961,
2012-01-07, 02:11:04,VALID,1005.07,VALID,0,VALID,92.1187,VALID,0,VALID,23.8787,VALID,256,VALID,1.69727,
2012-01-07, 02:12:04,VALID,1005.01,VALID,0,VALID,92.462,VALID,0.0815089,VALID,23.8769,VALID,224,VALID,2.02656,
2012-01-07, 02:13:04,VALID,1005.03,VALID,0.5,VALID,92.4086,VALID,0,VALID,23.8556,VALID,218,VALID,3.21602,
2012-01-07, 02:14:04,VALID,1004.99,VALID,0,VALID,92.6756,VALID,0,VALID,23.8964,VALID,222,VALID,3.3668,
2012-01-07, 02:15:04,VALID,1005.03,VALID,0,VALID,92.7596,VALID,0,VALID,23.8575,VALID,219,VALID,2.26211,
2012-01-07, 02:16:04,VALID,1005.02,VALID,0.5,VALID,92.7519,VALID,0,VALID,23.8185,VALID,225,VALID,2.93242,
2012-01-07, 02:17:04,VALID,1005.04,VALID,0,VALID,92.4849,VALID,0,VALID,23.7601,VALID,241,VALID,4.12383,
2012-01-07, 02:18:04,VALID,1005.05,VALID,0,VALID,92.935,VALID,0,VALID,23.7017,VALID,260,VALID,1.96406,
2012-01-07, 02:19:04,VALID,1005.07,VALID,0,VALID,92.668,VALID,0.0815089,VALID,23.6452,VALID,234,VALID,1.38555,
2012-01-07, 02:20:04,VALID,1005.09,VALID,0,VALID,92.3934,VALID,0.0815089,VALID,23.5248,VALID,212,VALID,3.65156,
2012-01-07, 02:21:04,VALID,1005.14,VALID,0,VALID,92.6985,VALID,0.0815089,VALID,23.5071,VALID,237,VALID,1.61602,
2012-01-07, 02:22:04,VALID,1005.07,VALID,0.5,VALID,92.874,VALID,0.0815089,VALID,23.4487,VALID,219,VALID,2.00586,
2012-01-07, 02:23:04,VALID,1005.1,VALID,0,VALID,93.2707,VALID,0.0815089,VALID,23.4487,VALID,291,VALID,1.08984,
2012-01-07, 02:24:04,VALID,1005.06,VALID,0,VALID,92.7977,VALID,0.0815089,VALID,23.3904,VALID,230,VALID,2.27031,
2012-01-07, 02:25:04,VALID,1004.98,VALID,0,VALID,92.1645,VALID,0.0815089,VALID,23.2913,VALID,224,VALID,3.91055,
2012-01-07, 02:26:04,VALID,1004.94,VALID,0,VALID,92.3857,VALID,0.0815089,VALID,23.2931,VALID,225,VALID,3.19609,
2012-01-07, 02:27:04,VALID,1005.03,VALID,0,VALID,92.6375,VALID,0,VALID,23.2541,VALID,241,VALID,2.0293,
2012-01-07, 02:28:04,VALID,1004.97,VALID,0.5,VALID,92.6604,VALID,0,VALID,23.1957,VALID,247,VALID,2.13516,
2012-01-07, 02:29:04,VALID,1005,VALID,0,VALID,92.34,VALID,0,VALID,23.1763,VALID,217,VALID,4.09727,
2012-01-07, 02:30:04,VALID,1005.05,VALID,0,VALID,92.6833,VALID,0,VALID,23.178,VALID,198,VALID,0.926562,
2012-01-07, 02:31:04,VALID,1004.99,VALID,0,VALID,93.202,VALID,0,VALID,23.1763,VALID,148,VALID,1.76563,
2012-01-07, 02:32:04,VALID,1005.02,VALID,0.5,VALID,93.5758,VALID,0,VALID,23.2559,VALID,201,VALID,3.24844,
2012-01-07, 02:33:04,VALID,1005.07,VALID,0,VALID,93.675,VALID,0,VALID,23.2736,VALID,253,VALID,2.58789,
2012-01-07, 02:34:04,VALID,1005,VALID,0,VALID,92.9655,VALID,0,VALID,23.2541,VALID,212,VALID,4.27852,
2012-01-07, 02:35:04,VALID,1005.02,VALID,0.5,VALID,93.2783,VALID,0,VALID,23.2541,VALID,223,VALID,1.58984,
2012-01-07, 02:36:04,VALID,1005.02,VALID,0,VALID,93.3699,VALID,0,VALID,23.2541,VALID,227,VALID,1.8125,
2012-01-07, 02:37:04,VALID,1005.01,VALID,0,VALID,93.469,VALID,0,VALID,23.2541,VALID,160,VALID,2.52422,
2012-01-07, 02:38:04,VALID,1005.05,VALID,0,VALID,93.1029,VALID,0,VALID,23.2347,VALID,222,VALID,3.04023,
2012-01-07, 02:39:04,VALID,1005.09,VALID,0,VALID,92.8282,VALID,0,VALID,23.2152,VALID,244,VALID,2.03398,
2012-01-07, 02:40:04,VALID,1005.06,VALID,0,VALID,92.9121,VALID,0,VALID,23.2152,VALID,225,VALID,1.75352,
2012-01-07, 02:41:04,VALID,1005.06,VALID,0,VALID,93.141,VALID,0,VALID,23.1957,VALID,229,VALID,1.67891,
2012-01-07, 02:42:04,VALID,1005.08,VALID,0,VALID,92.9579,VALID,0,VALID,23.1763,VALID,227,VALID,2.12188,
2012-01-07, 02:43:04,VALID,1005.08,VALID,0,VALID,93.1257,VALID,0,VALID,23.1975,VALID,230,VALID,2.09687,
2012-01-07, 02:44:04,VALID,1005.1,VALID,0.5,VALID,93.2325,VALID,0,VALID,23.2364,VALID,244,VALID,2.39609,
2012-01-07, 02:45:04,VALID,1005.11,VALID,0,VALID,93.3012,VALID,0,VALID,23.2541,VALID,222,VALID,1.54102,
2012-01-07, 02:46:04,VALID,1005.07,VALID,0,VALID,92.8664,VALID,0.0815089,VALID,23.2754,VALID,200,VALID,3.275,
2012-01-07, 02:47:04,VALID,1005.1,VALID,0,VALID,92.6222,VALID,0,VALID,23.2948,VALID,236,VALID,2.25352,
2012-01-07, 02:48:04,VALID,1005.11,VALID,0,VALID,92.4391,VALID,0,VALID,23.2736,VALID,206,VALID,1.21367,
2012-01-07, 02:49:04,VALID,1005.11,VALID,0,VALID,92.5841,VALID,0,VALID,23.2948,VALID,220,VALID,1.65195,
2012-01-07, 02:50:04,VALID,1005.08,VALID,0,VALID,92.5917,VALID,0,VALID,23.2736,VALID,258,VALID,1.56211,
2012-01-07, 02:51:04,VALID,1005.1,VALID,0,VALID,92.7824,VALID,0,VALID,23.3143,VALID,253,VALID,1.0707,
2012-01-07, 02:52:04,VALID,1005.11,VALID,0,VALID,92.8587,VALID,0,VALID,23.3532,VALID,267,VALID,1.04609,
2012-01-07, 02:53:04,VALID,1005.13,VALID,0,VALID,92.3247,VALID,0,VALID,23.3143,VALID,253,VALID,1.86836,
2012-01-07, 02:54:04,VALID,1005.12,VALID,0,VALID,92.2789,VALID,0,VALID,23.3143,VALID,261,VALID,1.57187,
2012-01-07, 02:55:04,VALID,1005.14,VALID,0,VALID,92.1111,VALID,0,VALID,23.2736,VALID,262,VALID,1.51523,
2012-01-07, 02:56:04,VALID,1005.13,VALID,0,VALID,92.1264,VALID,0,VALID,23.2541,VALID,219,VALID,1.03477,
2012-01-07, 02:57:04,VALID,1005.16,VALID,0,VALID,91.9662,VALID,0,VALID,23.2364,VALID,326,VALID,1.62539,
2012-01-07, 02:58:04,VALID,1005.11,VALID,0,VALID,91.6763,VALID,0,VALID,23.217,VALID,232,VALID,1.65234,
2012-01-07, 02:59:04,VALID,1005.15,VALID,0,VALID,91.8136,VALID,0,VALID,23.1763,VALID,239,VALID,1.51953,
2012-01-07, 03:00:04,VALID,1005.1,VALID,0,VALID,91.5008,VALID,0,VALID,23.1568,VALID,273,VALID,1.22695,
2012-01-07, 03:01:04,VALID,1005.06,VALID,0,VALID,91.1346,VALID,0,VALID,23.1179,VALID,237,VALID,1.87344,
2012-01-07, 03:02:04,VALID,1005.01,VALID,0,VALID,91.2109,VALID,0,VALID,23.0984,VALID,294,VALID,2.1957,
2012-01-07, 03:03:04,VALID,1004.99,VALID,0,VALID,91.4398,VALID,0,VALID,23.0984,VALID,286,VALID,1.87734,
2012-01-07, 03:04:04,VALID,1004.99,VALID,0,VALID,91.4398,VALID,0,VALID,23.1391,VALID,285,VALID,1.75742,
2012-01-07, 03:05:04,VALID,1005.02,VALID,0,VALID,91.7373,VALID,0,VALID,23.1179,VALID,293,VALID,1.08984,
2012-01-07, 03:06:04,VALID,1004.97,VALID,0,VALID,90.776,VALID,0,VALID,23.0807,VALID,289,VALID,2.78594,
2012-01-07, 03:07:04,VALID,1004.93,VALID,0,VALID,91.3253,VALID,0,VALID,23.0807,VALID,338,VALID,1.05508,
2012-01-07, 03:08:04,VALID,1004.93,VALID,0,VALID,91.0202,VALID,0,VALID,23.0206,VALID,320,VALID,2.31641,
2012-01-07, 03:09:04,VALID,1004.89,VALID,0.5,VALID,91.1651,VALID,0,VALID,23.0029,VALID,341,VALID,1.89102,
2012-01-07, 03:10:04,VALID,1004.85,VALID,0,VALID,91.0202,VALID,0,VALID,22.9834,VALID,291,VALID,1.79805,
2012-01-07, 03:11:04,VALID,1004.82,VALID,0,VALID,91.8059,VALID,0,VALID,22.9817,VALID,253,VALID,2.32695,
2012-01-07, 03:12:04,VALID,1004.79,VALID,0,VALID,91.722,VALID,0.0815089,VALID,22.9817,VALID,333,VALID,1.48789,
2012-01-07, 03:13:04,VALID,1004.78,VALID,0,VALID,92.1416,VALID,0,VALID,22.9428,VALID,341,VALID,1.33438,
2012-01-07, 03:14:04,VALID,1004.79,VALID,0,VALID,92.5765,VALID,0,VALID,23.0029,VALID,275,VALID,1.00391,
2012-01-07, 03:15:04,VALID,1004.79,VALID,0,VALID,92.7748,VALID,0,VALID,22.9834,VALID,301,VALID,1.29141,
2012-01-07, 03:16:04,VALID,1004.78,VALID,0,VALID,92.7748,VALID,0,VALID,22.9428,VALID,319,VALID,1.56953,
2012-01-07, 03:17:04,VALID,1004.78,VALID,0,VALID,93.1029,VALID,0,VALID,22.9622,VALID,303,VALID,0.857031,
2012-01-07, 03:18:04,VALID,1004.75,VALID,0,VALID,92.9884,VALID,0,VALID,22.9233,VALID,294,VALID,1.52266,
2012-01-07, 03:19:04,VALID,1004.72,VALID,0,VALID,92.8816,VALID,0,VALID,22.9233,VALID,317,VALID,0.950391,
2012-01-07, 03:20:04,VALID,1004.72,VALID,0,VALID,93.1639,VALID,0,VALID,22.9251,VALID,20,VALID,0.753516,
2012-01-07, 03:21:04,VALID,1004.73,VALID,0,VALID,93.202,VALID,0,VALID,22.9039,VALID,316,VALID,1.08125,
2012-01-07, 03:22:04,VALID,1004.7,VALID,0,VALID,92.9503,VALID,0,VALID,22.8455,VALID,309,VALID,0.814453,
2012-01-07, 03:23:04,VALID,1004.68,VALID,0,VALID,93.0113,VALID,0,VALID,22.8066,VALID,299,VALID,0.812891,
2012-01-07, 03:24:04,VALID,1004.69,VALID,0,VALID,93.3012,VALID,0,VALID,22.8066,VALID,348,VALID,0.808594,
2012-01-07, 03:25:04,VALID,1004.7,VALID,0,VALID,93.2478,VALID,0.0815089,VALID,22.7871,VALID,316,VALID,1.41172,
2012-01-07, 03:26:04,VALID,1004.69,VALID,0,VALID,93.3699,VALID,0,VALID,22.7677,VALID,279,VALID,1.38633,
2012-01-07, 03:27:04,VALID,1004.71,VALID,0,VALID,93.3928,VALID,0,VALID,22.7677,VALID,295,VALID,1.07422,
2012-01-07, 03:28:04,VALID,1004.72,VALID,0,VALID,93.6674,VALID,0,VALID,22.7677,VALID,282,VALID,0.479297,
2012-01-07, 03:29:04,VALID,1004.75,VALID,0,VALID,93.7742,VALID,0,VALID,22.7871,VALID,289,VALID,0.739062,
2012-01-07, 03:30:04,VALID,1004.71,VALID,0,VALID,93.8657,VALID,0.0815089,VALID,22.7854,VALID,322,VALID,0.558203,
2012-01-07, 03:31:04,VALID,1004.68,VALID,0,VALID,93.8886,VALID,0,VALID,22.826,VALID,303,VALID,0.907812,
2012-01-07, 03:32:04,VALID,1004.68,VALID,0,VALID,93.9725,VALID,0,VALID,22.8472,VALID,308,VALID,0.768359,
2012-01-07, 03:33:04,VALID,1004.66,VALID,0,VALID,93.8581,VALID,0,VALID,22.8455,VALID,347,VALID,1.04648,
2012-01-07, 03:34:04,VALID,1004.7,VALID,0.5,VALID,93.8276,VALID,0.0815089,VALID,22.8438,VALID,282,VALID,1.33359,
2012-01-07, 03:35:04,VALID,1004.67,VALID,0,VALID,93.6979,VALID,0,VALID,22.8649,VALID,335,VALID,0.833984,
2012-01-07, 03:36:04,VALID,1004.65,VALID,0,VALID,93.2478,VALID,0,VALID,22.8438,VALID,344,VALID,1.36641,
2012-01-07, 03:37:04,VALID,1004.65,VALID,0,VALID,92.9503,VALID,0.0815089,VALID,22.8438,VALID,299,VALID,1.33789,
2012-01-07, 03:38:04,VALID,1004.59,VALID,0,VALID,93.0113,VALID,0.0815089,VALID,22.8438,VALID,346,VALID,0.876953,
2012-01-07, 03:39:04,VALID,1004.59,VALID,0,VALID,92.8587,VALID,0,VALID,22.8844,VALID,290,VALID,0.969141,
2012-01-07, 03:40:04,VALID,1004.6,VALID,0,VALID,92.7519,VALID,0,VALID,22.8632,VALID,346,VALID,0.728906,
2012-01-07, 03:41:04,VALID,1004.56,VALID,0,VALID,92.7672,VALID,0.0815089,VALID,22.8632,VALID,285,VALID,0.713281,
2012-01-07, 03:42:04,VALID,1004.52,VALID,0,VALID,92.5688,VALID,0.0815089,VALID,22.8844,VALID,354,VALID,1.11211,
2012-01-07, 03:43:04,VALID,1004.5,VALID,0,VALID,92.7214,VALID,0,VALID,22.8844,VALID,341,VALID,0.810156,
2012-01-07, 03:44:04,VALID,1004.46,VALID,0,VALID,92.7367,VALID,0,VALID,22.8861,VALID,1,VALID,1.18516,
2012-01-07, 03:45:04,VALID,1004.43,VALID,0,VALID,92.8206,VALID,0,VALID,22.8649,VALID,354,VALID,0.891797,
2012-01-07, 03:46:04,VALID,1004.44,VALID,0,VALID,92.8053,VALID,0.0815089,VALID,22.8844,VALID,357,VALID,1.31836,
2012-01-07, 03:47:04,VALID,1004.44,VALID,0,VALID,92.8206,VALID,0.0815089,VALID,22.8649,VALID,359,VALID,0.832031,